TimeEDT,TemperatureF,Dew PointF,Humidity,Sea Level PressureIn,VisibilityMPH,Wind Direction,Wind SpeedMPH,Gust SpeedMPH,PrecipitationIn,Events,Conditions,WindDirDegrees,DateUTC
12:53 AM,53.1,50.0,89,29.86,8.0,Calm,Calm,-,N/A,,Mostly Cloudy,0,2013-04-29 04:53:00
1:15 AM,53.6,48.2,82,29.86,8.0,Calm,Calm,-,N/A,,Scattered Clouds,0,2013-04-29 05:15:00
1:48 AM,51.8,48.2,88,29.87,6.0,Calm,Calm,-,N/A,,Mostly Cloudy,0,2013-04-29 05:48:00
1:53 AM,52.0,48.9,89,29.87,7.0,Calm,Calm,-,N/A,,Mostly Cloudy,0,2013-04-29 05:53:00
2:53 AM,53.1,50.0,89,29.87,8.0,Calm,Calm,-,N/A,,Overcast,0,2013-04-29 06:53:00
3:53 AM,52.0,50.0,93,29.87,8.0,SW,3.5,-,N/A,,Overcast,220,2013-04-29 07:53:00
4:53 AM,52.0,48.0,86,29.87,8.0,Calm,Calm,-,N/A,,Overcast,0,2013-04-29 08:53:00
5:19 AM,51.8,46.4,82,29.87,8.0,Calm,Calm,-,N/A,,Scattered Clouds,0,2013-04-29 09:19:00
5:53 AM,48.0,44.1,86,29.89,6.0,SSW,3.5,-,N/A,,Partly Cloudy,210,2013-04-29 09:53:00
6:47 AM,46.4,44.6,93,29.89,2.5,SSE,3.5,-,N/A,,Scattered Clouds,160,2013-04-29 10:47:00
6:53 AM,46.9,44.1,90,29.90,3.0,SSE,3.5,-,N/A,,Mostly Cloudy,160,2013-04-29 10:53:00
7:53 AM,50.0,46.9,89,29.93,3.0,South,3.5,-,N/A,,Mostly Cloudy,180,2013-04-29 11:53:00
8:53 AM,55.0,48.9,80,29.94,8.0,SSW,5.8,-,N/A,,Mostly Cloudy,210,2013-04-29 12:53:00
9:53 AM,59.0,51.1,75,29.93,10.0,SSW,6.9,-,N/A,,Scattered Clouds,200,2013-04-29 13:53:00
10:53 AM,62.1,52.0,70,29.91,10.0,Variable,4.6,-,N/A,,Mostly Cloudy,0,2013-04-29 14:53:00
11:53 AM,66.9,53.1,61,29.91,10.0,West,4.6,-,N/A,,Mostly Cloudy,260,2013-04-29 15:53:00
12:53 PM,70.0,51.1,51,29.90,10.0,Variable,6.9,-,N/A,,Mostly Cloudy,0,2013-04-29 16:53:00
1:53 PM,70.0,51.1,51,29.88,10.0,SSW,8.1,-,N/A,,Overcast,200,2013-04-29 17:53:00
2:53 PM,70.0,50.0,49,29.88,10.0,SW,10.4,-,N/A,,Overcast,220,2013-04-29 18:53:00
3:53 PM,73.0,51.1,46,29.87,10.0,SW,12.7,-,N/A,,Overcast,220,2013-04-29 19:53:00
4:53 PM,73.0,51.1,46,29.86,10.0,WSW,9.2,-,N/A,,Overcast,250,2013-04-29 20:53:00
5:53 PM,71.1,50.0,47,29.86,10.0,West,8.1,-,N/A,,Overcast,280,2013-04-29 21:53:00
6:53 PM,69.1,48.9,49,29.86,10.0,WNW,6.9,-,N/A,,Overcast,300,2013-04-29 22:53:00
7:53 PM,68.0,51.1,55,29.85,10.0,Calm,Calm,-,N/A,,Mostly Cloudy,0,2013-04-29 23:53:00
8:53 PM,66.0,51.1,59,29.86,10.0,SW,3.5,-,N/A,,Mostly Cloudy,220,2013-04-30 00:53:00
9:53 PM,64.9,51.1,61,29.87,10.0,SE,5.8,-,N/A,,Overcast,140,2013-04-30 01:53:00
10:53 PM,64.0,50.0,60,29.88,10.0,SSW,8.1,-,N/A,,Mostly Cloudy,200,2013-04-30 02:53:00
11:53 PM,60.1,50.0,69,29.89,10.0,South,6.9,-,N/A,,Partly Cloudy,170,2013-04-30 03:53:00